Погода в Мелекеоке

Палау     7°29′53″N   134°38′14″E
темп.,
°C
ветер,
м/с
пор.,
м/с
влажн.,
%
обл.,
%
осадки,
мм/ч
давл.,
гПа
погр.,
м
7 марта, вс
вс700:00+28св677790 0.1 1011927
03:00+27св677880 0.3 1010863
06:00+27св787787 0.3 1011903
09:00+28всв787749 0.3 10111016
12:00+28всв7875100 0.0 1011887
15:00+28всв687596 0.0 1008980
18:00+28св787771 0.1 1010838
21:00+27всв797986 0.5 1011833
8 марта, пн
пн800:00+27всв678094 0.6 1010718
03:00+27всв578197 4.4 1008609
06:00+27св6881100 6.5 1009617
09:00+27всв8981100 14.0 1010748
12:00+27всв91083100 3.9 1010756
15:00+27св8985100 6.3 1008718
18:00+26всв91189100 4.9 1009700
21:00+27всв91087100 5.8 1011756
9 марта, вт
вт900:00+27всв7983100 0.4 1010788
03:00+27всв7985100 4.3 1008686
06:00+27в6784100 3.8 1009682
09:00+27всв6784100 6.1 1011629
12:00+27всв6782100 1.8 1010708
15:00+27всв5681100 4.8 1008478
18:00+28св4577100 1.3 1009428
21:00+28св4577100 2.6 1010497
10 марта, ср
ср1000:00+28св3477100 2.6 1011286
03:00+28всв2375100 5.8 1009286
06:00+28вюв3476100 1.6 1009448
09:00+28в4476100 1.6 1011536
12:00+28в4575100 0.0 1009605
15:00+28в4576100 0.0 1008697
18:00+28в5778100 0.4 1008745
21:00+28в81079100 1.9 1011825
11 марта, чт
чт1100:00+27вюв8984100 0.6 1010665
03:00+27вюв4681100 0.9 1009644
06:00+27в458077 0.2 1010636
09:00+28всв677860 2.1 1011534
12:00+28в677714 0.8 1009604
15:00+28в567656 1.3 1008722
18:00+27в677965 3.1 1008525
21:00+28в567981 4.3 1010507